BRASILSAT B3 1 25152U 98006A 21060.31465306 -.00000235 00000-0 00000-0 0 9996 2 25152 6.6908 62.2639 0005139 327.9711 226.4907 0.99220694 24021 INMARSAT 3-F5 1 25153U 98006B 21060.37885872 -.00000294 00000-0 00000-0 0 9992 2 25153 5.3613 68.8336 0005081 279.4521 253.4633 1.00267858 84504